,,,PA_Meas_PMT16A,,PR_Meas_QMR101_102,,RH_Meas_QMH101,,SR_Meas_QMS101,,TA_Meas_QMH101,,GenWind,,GenWind,
date,time,status,PA,status,PR,status,RH,status,SR,status,TA,status,DirAvg,status,SpdAvg,
2010-07-21, 00:00:04,VALID,1010.79,VALID,0,VALID,102.399,VALID,0,VALID,23.3043,VALID,21,VALID,0.452734,
2010-07-21, 00:01:04,VALID,1010.77,VALID,0,VALID,102.391,VALID,0,VALID,23.3043,VALID,30,VALID,0.270312,
2010-07-21, 00:02:04,VALID,1010.72,VALID,0,VALID,102.391,VALID,0,VALID,23.3043,VALID,31,VALID,0.426953,
2010-07-21, 00:03:04,VALID,1010.69,VALID,0,VALID,102.391,VALID,0,VALID,23.3043,VALID,30,VALID,0.342187,
2010-07-21, 00:04:04,VALID,1010.66,VALID,0,VALID,102.36,VALID,0,VALID,23.3238,VALID,30,VALID,0.293359,
2010-07-21, 00:05:04,VALID,1010.67,VALID,0,VALID,102.368,VALID,0,VALID,23.3238,VALID,30,VALID,0.344922,
2010-07-21, 00:06:04,VALID,1010.65,VALID,0,VALID,102.391,VALID,0,VALID,23.3238,VALID,30,VALID,0,
2010-07-21, 00:07:04,VALID,1010.68,VALID,0,VALID,102.368,VALID,0,VALID,23.3238,VALID,30,VALID,0,
2010-07-21, 00:08:04,VALID,1010.67,VALID,0,VALID,102.391,VALID,0,VALID,23.3043,VALID,30,VALID,0,
2010-07-21, 00:09:04,VALID,1010.65,VALID,0,VALID,102.383,VALID,0,VALID,23.3238,VALID,31,VALID,0,
2010-07-21, 00:10:04,VALID,1010.63,VALID,0,VALID,102.406,VALID,0,VALID,23.3043,VALID,31,VALID,0.315625,
2010-07-21, 00:11:04,VALID,1010.62,VALID,0,VALID,102.421,VALID,0,VALID,23.3043,VALID,30,VALID,0.00195313,
2010-07-21, 00:12:04,VALID,1010.58,VALID,0,VALID,102.406,VALID,0,VALID,23.3043,VALID,30,VALID,0,
2010-07-21, 00:13:04,VALID,1010.57,VALID,0,VALID,102.421,VALID,0,VALID,23.2848,VALID,31,VALID,0,
2010-07-21, 00:14:04,VALID,1010.54,VALID,0,VALID,102.429,VALID,0,VALID,23.2848,VALID,31,VALID,0.390234,
2010-07-21, 00:15:04,VALID,1010.53,VALID,0,VALID,102.429,VALID,0,VALID,23.2848,VALID,76,VALID,0.527734,
2010-07-21, 00:16:04,VALID,1010.51,VALID,0,VALID,102.429,VALID,0,VALID,23.2848,VALID,78,VALID,0.403125,
2010-07-21, 00:17:04,VALID,1010.52,VALID,0,VALID,102.429,VALID,0,VALID,23.2848,VALID,78,VALID,0.476563,
2010-07-21, 00:18:04,VALID,1010.5,VALID,0,VALID,102.437,VALID,0,VALID,23.2848,VALID,78,VALID,0.345703,
2010-07-21, 00:19:04,VALID,1010.5,VALID,0,VALID,102.475,VALID,0,VALID,23.2441,VALID,78,VALID,0.358203,
2010-07-21, 00:20:04,VALID,1010.47,VALID,0,VALID,102.482,VALID,0,VALID,23.2848,VALID,78,VALID,0.427344,
2010-07-21, 00:21:04,VALID,1010.47,VALID,0,VALID,102.482,VALID,0,VALID,23.2636,VALID,78,VALID,0.506641,
2010-07-21, 00:22:04,VALID,1010.48,VALID,0,VALID,102.513,VALID,0,VALID,23.2654,VALID,78,VALID,0.557031,
2010-07-21, 00:23:04,VALID,1010.46,VALID,0,VALID,102.528,VALID,0,VALID,23.2459,VALID,78,VALID,0.312891,
2010-07-21, 00:24:04,VALID,1010.45,VALID,0,VALID,102.574,VALID,0,VALID,23.2459,VALID,78,VALID,0.364453,
2010-07-21, 00:25:04,VALID,1010.46,VALID,0,VALID,102.551,VALID,0,VALID,23.2264,VALID,78,VALID,0.417578,
2010-07-21, 00:26:04,VALID,1010.44,VALID,0,VALID,102.551,VALID,0,VALID,23.2264,VALID,78,VALID,0.339453,
2010-07-21, 00:27:04,VALID,1010.4,VALID,0,VALID,102.582,VALID,0,VALID,23.2069,VALID,78,VALID,0.419922,
2010-07-21, 00:28:04,VALID,1010.41,VALID,0,VALID,102.597,VALID,0,VALID,23.2069,VALID,78,VALID,0.456641,
2010-07-21, 00:29:04,VALID,1010.4,VALID,0,VALID,102.597,VALID,0,VALID,23.2069,VALID,78,VALID,0.370313,
2010-07-21, 00:30:04,VALID,1010.4,VALID,0,VALID,102.589,VALID,0,VALID,23.2069,VALID,78,VALID,0.358203,
2010-07-21, 00:31:04,VALID,1010.4,VALID,0,VALID,102.597,VALID,0,VALID,23.1874,VALID,78,VALID,0.0539063,
2010-07-21, 00:32:04,VALID,1010.38,VALID,0,VALID,102.605,VALID,0,VALID,23.1874,VALID,78,VALID,0.03125,
2010-07-21, 00:33:04,VALID,1010.37,VALID,0,VALID,102.62,VALID,0,VALID,23.1874,VALID,78,VALID,0,
2010-07-21, 00:34:04,VALID,1010.36,VALID,0,VALID,102.605,VALID,0,VALID,23.1679,VALID,78,VALID,0,
2010-07-21, 00:35:04,VALID,1010.33,VALID,0,VALID,102.627,VALID,0,VALID,23.1485,VALID,78,VALID,0,
2010-07-21, 00:36:04,VALID,1010.3,VALID,0,VALID,102.658,VALID,0,VALID,23.1485,VALID,78,VALID,0.225391,
2010-07-21, 00:37:04,VALID,1010.3,VALID,0,VALID,102.65,VALID,0,VALID,23.129,VALID,64,VALID,0.363281,
2010-07-21, 00:38:04,VALID,1010.26,VALID,0,VALID,102.65,VALID,0,VALID,23.129,VALID,64,VALID,0.152734,
2010-07-21, 00:39:05,VALID,1010.22,VALID,0,VALID,102.673,VALID,0,VALID,23.1095,VALID,64,VALID,0.253516,
2010-07-21, 00:40:05,VALID,1010.22,VALID,0,VALID,102.666,VALID,0,VALID,23.1095,VALID,64,VALID,0.00507812,
2010-07-21, 00:41:04,VALID,1010.2,VALID,0,VALID,102.688,VALID,0,VALID,23.1095,VALID,64,VALID,0,
2010-07-21, 00:42:05,VALID,1010.16,VALID,0,VALID,102.673,VALID,0,VALID,23.09,VALID,64,VALID,0,
2010-07-21, 00:43:05,VALID,1010.14,VALID,0,VALID,102.688,VALID,0,VALID,23.0705,VALID,64,VALID,0,
2010-07-21, 00:44:05,VALID,1010.12,VALID,0,VALID,102.704,VALID,0,VALID,23.0705,VALID,64,VALID,0,
2010-07-21, 00:45:05,VALID,1010.11,VALID,0,VALID,102.704,VALID,0,VALID,23.0511,VALID,64,VALID,0.569531,
2010-07-21, 00:46:05,VALID,1010.06,VALID,0,VALID,102.666,VALID,0,VALID,23.0511,VALID,64,VALID,0.553906,
2010-07-21, 00:47:05,VALID,1010.07,VALID,0,VALID,102.673,VALID,0,VALID,23.0705,VALID,75,VALID,0.546484,
2010-07-21, 00:48:05,VALID,1010.01,VALID,0,VALID,102.673,VALID,0,VALID,23.0705,VALID,75,VALID,0.358203,
2010-07-21, 00:49:05,VALID,1010.02,VALID,0,VALID,102.688,VALID,0,VALID,23.0918,VALID,75,VALID,0,
2010-07-21, 00:50:05,VALID,1009.97,VALID,0,VALID,102.673,VALID,0,VALID,23.0918,VALID,54,VALID,0,
2010-07-21, 00:51:05,VALID,1009.95,VALID,0,VALID,102.681,VALID,0,VALID,23.0705,VALID,52,VALID,0,
2010-07-21, 00:52:05,VALID,1009.97,VALID,0,VALID,102.704,VALID,0,VALID,23.0705,VALID,52,VALID,0,
2010-07-21, 00:53:05,VALID,1009.96,VALID,0,VALID,102.696,VALID,0,VALID,23.0705,VALID,52,VALID,0,
2010-07-21, 00:54:05,VALID,1009.94,VALID,0,VALID,102.734,VALID,0,VALID,23.0705,VALID,52,VALID,0,
2010-07-21, 00:55:05,VALID,1009.97,VALID,0,VALID,102.734,VALID,0,VALID,23.0511,VALID,52,VALID,0,
2010-07-21, 00:56:05,VALID,1009.93,VALID,0,VALID,102.749,VALID,0,VALID,23.0511,VALID,52,VALID,0,
2010-07-21, 00:57:05,VALID,1009.91,VALID,0,VALID,102.734,VALID,0,VALID,23.0316,VALID,52,VALID,0,
2010-07-21, 00:58:05,VALID,1009.89,VALID,0,VALID,102.749,VALID,0,VALID,23.0723,VALID,52,VALID,0,
2010-07-21, 00:59:05,VALID,1009.88,VALID,0,VALID,102.742,VALID,0,VALID,23.0528,VALID,52,VALID,0,
2010-07-21, 01:00:05,VALID,1009.86,VALID,0,VALID,102.749,VALID,0,VALID,23.0316,VALID,52,VALID,0,
2010-07-21, 01:01:05,VALID,1009.85,VALID,0,VALID,102.734,VALID,0,VALID,23.0316,VALID,52,VALID,0,
2010-07-21, 01:02:05,VALID,1009.82,VALID,0,VALID,102.742,VALID,0,VALID,22.9909,VALID,52,VALID,0,
2010-07-21, 01:03:05,VALID,1009.79,VALID,0,VALID,102.734,VALID,0,VALID,23.0121,VALID,52,VALID,0,
2010-07-21, 01:04:05,VALID,1009.79,VALID,0,VALID,102.765,VALID,0,VALID,23.0121,VALID,52,VALID,0,
2010-07-21, 01:05:05,VALID,1009.79,VALID,0,VALID,102.765,VALID,0,VALID,22.9926,VALID,52,VALID,0,
2010-07-21, 01:06:05,VALID,1009.75,VALID,0,VALID,102.765,VALID,0,VALID,22.9926,VALID,52,VALID,0,
2010-07-21, 01:07:05,VALID,1009.74,VALID,0,VALID,102.772,VALID,0,VALID,22.9731,VALID,52,VALID,0,
2010-07-21, 01:08:05,VALID,1009.72,VALID,0,VALID,102.757,VALID,0,VALID,22.9731,VALID,52,VALID,0,
2010-07-21, 01:09:05,VALID,1009.73,VALID,0,VALID,102.772,VALID,0,VALID,22.9536,VALID,52,VALID,0,
2010-07-21, 01:10:05,VALID,1009.72,VALID,0,VALID,102.78,VALID,0,VALID,22.9342,VALID,52,VALID,0,
2010-07-21, 01:11:05,VALID,1009.69,VALID,0,VALID,102.788,VALID,0,VALID,22.9147,VALID,52,VALID,0,
2010-07-21, 01:12:05,VALID,1009.68,VALID,0,VALID,102.78,VALID,0,VALID,22.9359,VALID,52,VALID,0,
2010-07-21, 01:13:05,VALID,1009.67,VALID,0,VALID,102.765,VALID,0,VALID,22.8952,VALID,52,VALID,0,
2010-07-21, 01:14:05,VALID,1009.67,VALID,0,VALID,102.788,VALID,0,VALID,22.8952,VALID,52,VALID,0,
2010-07-21, 01:15:05,VALID,1009.67,VALID,0,VALID,102.772,VALID,0,VALID,22.8952,VALID,52,VALID,0,
2010-07-21, 01:16:05,VALID,1009.65,VALID,0,VALID,102.765,VALID,0,VALID,22.8545,VALID,52,VALID,0,
2010-07-21, 01:17:05,VALID,1009.64,VALID,0,VALID,102.757,VALID,0,VALID,22.8757,VALID,52,VALID,0,
2010-07-21, 01:18:05,VALID,1009.66,VALID,0,VALID,102.765,VALID,0,VALID,22.8757,VALID,52,VALID,0,
2010-07-21, 01:19:05,VALID,1009.59,VALID,0,VALID,102.749,VALID,0,VALID,22.8952,VALID,52,VALID,0,
2010-07-21, 01:20:05,VALID,1009.57,VALID,0,VALID,102.711,VALID,0,VALID,22.9164,VALID,52,VALID,0,
2010-07-21, 01:21:05,VALID,1009.56,VALID,0,VALID,102.711,VALID,0,VALID,22.874,VALID,52,VALID,0,
2010-07-21, 01:22:05,VALID,1009.56,VALID,0,VALID,102.704,VALID,0,VALID,22.9147,VALID,52,VALID,0,
2010-07-21, 01:23:05,VALID,1009.53,VALID,0,VALID,102.688,VALID,0,VALID,22.9164,VALID,52,VALID,0,
2010-07-21, 01:24:05,VALID,1009.49,VALID,0,VALID,102.704,VALID,0,VALID,22.9147,VALID,52,VALID,0,
2010-07-21, 01:25:05,VALID,1009.5,VALID,0,VALID,102.711,VALID,0,VALID,22.9147,VALID,52,VALID,0,
2010-07-21, 01:26:05,VALID,1009.46,VALID,0,VALID,102.696,VALID,0,VALID,22.9147,VALID,52,VALID,0,
2010-07-21, 01:27:05,VALID,1009.46,VALID,0,VALID,102.719,VALID,0,VALID,22.8952,VALID,52,VALID,0,
2010-07-21, 01:28:05,VALID,1009.44,VALID,0,VALID,102.711,VALID,0,VALID,22.8952,VALID,52,VALID,0,
2010-07-21, 01:29:05,VALID,1009.43,VALID,0,VALID,102.696,VALID,0,VALID,22.8952,VALID,52,VALID,0,
2010-07-21, 01:30:05,VALID,1009.42,VALID,0,VALID,102.719,VALID,0,VALID,22.8757,VALID,52,VALID,0,
2010-07-21, 01:31:05,VALID,1009.41,VALID,0,VALID,102.704,VALID,0,VALID,22.8757,VALID,52,VALID,0,
2010-07-21, 01:32:05,VALID,1009.42,VALID,0,VALID,102.696,VALID,0,VALID,22.8757,VALID,52,VALID,0,
2010-07-21, 01:33:05,VALID,1009.4,VALID,0,VALID,102.673,VALID,0,VALID,22.8545,VALID,52,VALID,0,
2010-07-21, 01:34:05,VALID,1009.41,VALID,0,VALID,102.658,VALID,0,VALID,22.8969,VALID,52,VALID,0,
2010-07-21, 01:35:05,VALID,1009.37,VALID,0,VALID,102.666,VALID,0,VALID,22.8757,VALID,52,VALID,0,
2010-07-21, 01:36:05,VALID,1009.39,VALID,0,VALID,102.65,VALID,0,VALID,22.8757,VALID,52,VALID,0,
2010-07-21, 01:37:05,VALID,1009.37,VALID,0,VALID,102.658,VALID,0,VALID,22.8757,VALID,93,VALID,0,
2010-07-21, 01:38:05,VALID,1009.39,VALID,0,VALID,102.635,VALID,0,VALID,22.8952,VALID,102,VALID,0,
2010-07-21, 01:39:05,VALID,1009.38,VALID,0,VALID,102.62,VALID,0,VALID,22.8952,VALID,89,VALID,0,
2010-07-21, 01:40:05,VALID,1009.39,VALID,0,VALID,102.612,VALID,0,VALID,22.9164,VALID,89,VALID,0,
2010-07-21, 01:41:05,VALID,1009.4,VALID,0,VALID,102.62,VALID,0,VALID,22.9147,VALID,89,VALID,0,
2010-07-21, 01:42:05,VALID,1009.41,VALID,0,VALID,102.612,VALID,0,VALID,22.9147,VALID,84,VALID,0.455469,
2010-07-21, 01:43:05,VALID,1009.41,VALID,0,VALID,102.612,VALID,0,VALID,22.9359,VALID,84,VALID,0.107031,
2010-07-21, 01:44:05,VALID,1009.41,VALID,0,VALID,102.62,VALID,0,VALID,22.9147,VALID,80,VALID,0.452734,
2010-07-21, 01:45:05,VALID,1009.41,VALID,0,VALID,102.62,VALID,0,VALID,22.9147,VALID,46,VALID,0.834375,
2010-07-21, 01:46:05,VALID,1009.42,VALID,0,VALID,102.62,VALID,0,VALID,22.9359,VALID,48,VALID,0.264453,
2010-07-21, 01:47:05,VALID,1009.39,VALID,0,VALID,102.627,VALID,0,VALID,22.9147,VALID,63,VALID,0.400781,
2010-07-21, 01:48:05,VALID,1009.4,VALID,0,VALID,102.627,VALID,0,VALID,22.9147,VALID,62,VALID,0.0117188,
2010-07-21, 01:49:05,VALID,1009.34,VALID,0,VALID,102.643,VALID,0,VALID,22.9359,VALID,37,VALID,0.456641,
2010-07-21, 01:50:05,VALID,1009.31,VALID,0,VALID,102.658,VALID,0,VALID,22.9359,VALID,63,VALID,0.09375,
2010-07-21, 01:51:05,VALID,1009.29,VALID,0,VALID,102.643,VALID,0,VALID,22.9164,VALID,63,VALID,0,
2010-07-21, 01:52:05,VALID,1009.26,VALID,0,VALID,102.65,VALID,0,VALID,22.9147,VALID,63,VALID,0,
2010-07-21, 01:53:05,VALID,1009.25,VALID,0,VALID,102.65,VALID,0,VALID,22.9164,VALID,14,VALID,0.200781,
2010-07-21, 01:54:05,VALID,1009.18,VALID,0,VALID,102.65,VALID,0,VALID,22.8757,VALID,14,VALID,0,
2010-07-21, 01:55:05,VALID,1009.17,VALID,0,VALID,102.643,VALID,0,VALID,22.8952,VALID,14,VALID,0,
2010-07-21, 01:56:05,VALID,1009.15,VALID,0,VALID,102.635,VALID,0,VALID,22.8969,VALID,14,VALID,0,
2010-07-21, 01:57:05,VALID,1009.13,VALID,0,VALID,102.635,VALID,0,VALID,22.8952,VALID,14,VALID,0,
2010-07-21, 01:58:05,VALID,1009.13,VALID,0,VALID,102.658,VALID,0,VALID,22.8757,VALID,14,VALID,0,
2010-07-21, 01:59:05,VALID,1009.15,VALID,0,VALID,102.658,VALID,0,VALID,22.8775,VALID,14,VALID,0,
2010-07-21, 02:00:05,VALID,1009.14,VALID,0,VALID,102.65,VALID,0,VALID,22.8775,VALID,14,VALID,0,
2010-07-21, 02:01:05,VALID,1009.13,VALID,0,VALID,102.666,VALID,0,VALID,22.8775,VALID,14,VALID,0,
2010-07-21, 02:02:05,VALID,1009.13,VALID,0,VALID,102.681,VALID,0,VALID,22.8562,VALID,14,VALID,0,
2010-07-21, 02:03:05,VALID,1009.12,VALID,0,VALID,102.666,VALID,0,VALID,22.8368,VALID,14,VALID,0,
2010-07-21, 02:04:05,VALID,1009.1,VALID,0,VALID,102.681,VALID,0,VALID,22.8385,VALID,14,VALID,0,
2010-07-21, 02:05:05,VALID,1009.09,VALID,0,VALID,102.658,VALID,0,VALID,22.8173,VALID,14,VALID,0,
2010-07-21, 02:06:05,VALID,1009.08,VALID,0,VALID,102.65,VALID,0,VALID,22.8173,VALID,52,VALID,0,
2010-07-21, 02:07:05,VALID,1009.07,VALID,0,VALID,102.643,VALID,0,VALID,22.858,VALID,52,VALID,0,
2010-07-21, 02:08:05,VALID,1009.07,VALID,0,VALID,102.643,VALID,0,VALID,22.8173,VALID,52,VALID,0,
2010-07-21, 02:09:05,VALID,1009.05,VALID,0,VALID,102.65,VALID,0,VALID,22.8368,VALID,52,VALID,0,
2010-07-21, 02:10:05,VALID,1009.05,VALID,0,VALID,102.666,VALID,0,VALID,22.8173,VALID,52,VALID,0,
2010-07-21, 02:11:05,VALID,1009.05,VALID,0,VALID,102.65,VALID,0,VALID,22.7978,VALID,52,VALID,0,
2010-07-21, 02:12:05,VALID,1009.07,VALID,0,VALID,102.643,VALID,0.105969,VALID,22.7978,VALID,52,VALID,0,
2010-07-21, 02:13:05,VALID,1009.08,VALID,0,VALID,102.643,VALID,0,VALID,22.7978,VALID,52,VALID,0,
2010-07-21, 02:14:05,VALID,1009.07,VALID,0,VALID,102.62,VALID,0,VALID,22.8173,VALID,52,VALID,0,
2010-07-21, 02:15:05,VALID,1009.06,VALID,0,VALID,102.605,VALID,0,VALID,22.8173,VALID,52,VALID,0,
2010-07-21, 02:16:05,VALID,1009.06,VALID,0,VALID,102.605,VALID,0,VALID,22.8173,VALID,52,VALID,0,
2010-07-21, 02:17:05,VALID,1009.04,VALID,0,VALID,102.612,VALID,0,VALID,22.8173,VALID,52,VALID,0,
2010-07-21, 02:18:05,VALID,1009.04,VALID,0,VALID,102.605,VALID,0,VALID,22.8173,VALID,52,VALID,0,
2010-07-21, 02:19:05,VALID,1009.05,VALID,0,VALID,102.597,VALID,0,VALID,22.8173,VALID,52,VALID,0,
2010-07-21, 02:20:05,VALID,1009.02,VALID,0,VALID,102.597,VALID,0,VALID,22.8173,VALID,52,VALID,0,
2010-07-21, 02:21:05,VALID,1009.03,VALID,0,VALID,102.597,VALID,0,VALID,22.8385,VALID,52,VALID,0,
2010-07-21, 02:22:05,VALID,1009.04,VALID,0,VALID,102.605,VALID,0,VALID,22.7978,VALID,52,VALID,0,
2010-07-21, 02:23:05,VALID,1009.05,VALID,0,VALID,102.597,VALID,0,VALID,22.8173,VALID,52,VALID,0,
2010-07-21, 02:24:05,VALID,1009.04,VALID,0,VALID,102.566,VALID,0,VALID,22.8173,VALID,52,VALID,0,
2010-07-21, 02:25:05,VALID,1009.01,VALID,0,VALID,102.566,VALID,0,VALID,22.8368,VALID,52,VALID,0,
2010-07-21, 02:26:05,VALID,1009.01,VALID,0,VALID,102.574,VALID,0,VALID,22.8368,VALID,52,VALID,0,
2010-07-21, 02:27:05,VALID,1008.98,VALID,0,VALID,102.566,VALID,0,VALID,22.8368,VALID,52,VALID,0,
2010-07-21, 02:28:05,VALID,1008.96,VALID,0,VALID,102.582,VALID,0,VALID,22.8173,VALID,52,VALID,0,
2010-07-21, 02:29:05,VALID,1008.97,VALID,0,VALID,102.544,VALID,0,VALID,22.8173,VALID,52,VALID,0,
2010-07-21, 02:30:05,VALID,1008.94,VALID,0,VALID,102.566,VALID,0,VALID,22.8173,VALID,52,VALID,0,
2010-07-21, 02:31:05,VALID,1008.97,VALID,0,VALID,102.566,VALID,0,VALID,22.7978,VALID,52,VALID,0,
2010-07-21, 02:32:05,VALID,1008.99,VALID,0,VALID,102.582,VALID,0,VALID,22.7978,VALID,52,VALID,0,
2010-07-21, 02:33:05,VALID,1008.98,VALID,0,VALID,102.589,VALID,0,VALID,22.7995,VALID,52,VALID,0,
2010-07-21, 02:34:05,VALID,1008.98,VALID,0,VALID,102.597,VALID,0,VALID,22.7783,VALID,52,VALID,0,
2010-07-21, 02:35:05,VALID,1008.95,VALID,0,VALID,102.574,VALID,0,VALID,22.7783,VALID,52,VALID,0,
2010-07-21, 02:36:05,VALID,1008.94,VALID,0,VALID,102.582,VALID,0,VALID,22.7783,VALID,52,VALID,0,
2010-07-21, 02:37:05,VALID,1008.93,VALID,0,VALID,102.566,VALID,0,VALID,22.7978,VALID,52,VALID,0,
2010-07-21, 02:38:05,VALID,1008.9,VALID,0,VALID,102.551,VALID,0,VALID,22.7978,VALID,55,VALID,0.144531,
2010-07-21, 02:39:05,VALID,1008.9,VALID,0,VALID,102.559,VALID,0,VALID,22.7783,VALID,62,VALID,0.614453,
2010-07-21, 02:40:05,VALID,1008.92,VALID,0,VALID,102.544,VALID,0,VALID,22.7783,VALID,65,VALID,0.583984,
2010-07-21, 02:41:05,VALID,1008.93,VALID,0,VALID,102.544,VALID,0,VALID,22.7783,VALID,66,VALID,0.438672,
2010-07-21, 02:42:05,VALID,1008.93,VALID,0,VALID,102.536,VALID,0,VALID,22.7978,VALID,66,VALID,0.634375,
2010-07-21, 02:43:05,VALID,1008.96,VALID,0,VALID,102.536,VALID,0,VALID,22.7978,VALID,65,VALID,0.766406,
2010-07-21, 02:44:05,VALID,1008.97,VALID,0,VALID,102.536,VALID,0,VALID,22.7978,VALID,62,VALID,0.405078,
2010-07-21, 02:45:05,VALID,1008.97,VALID,0,VALID,102.536,VALID,0,VALID,22.7978,VALID,73,VALID,0.699219,
2010-07-21, 02:46:05,VALID,1008.99,VALID,0,VALID,102.544,VALID,0,VALID,22.8173,VALID,65,VALID,0.529297,
2010-07-21, 02:47:05,VALID,1008.97,VALID,0,VALID,102.536,VALID,0,VALID,22.8173,VALID,67,VALID,0.555469,
2010-07-21, 02:48:05,VALID,1008.98,VALID,0,VALID,102.513,VALID,0,VALID,22.7978,VALID,69,VALID,0.601563,
2010-07-21, 02:49:05,VALID,1009,VALID,0,VALID,102.544,VALID,0,VALID,22.8368,VALID,75,VALID,0.528906,
2010-07-21, 02:50:05,VALID,1009.03,VALID,0,VALID,102.536,VALID,0,VALID,22.8173,VALID,75,VALID,0.575391,
2010-07-21, 02:51:05,VALID,1009.05,VALID,0,VALID,102.544,VALID,0,VALID,22.858,VALID,75,VALID,0.566406,
2010-07-21, 02:52:05,VALID,1009.04,VALID,0,VALID,102.536,VALID,0,VALID,22.8368,VALID,75,VALID,0.369141,
2010-07-21, 02:53:05,VALID,1009.04,VALID,0,VALID,102.544,VALID,0,VALID,22.8368,VALID,101,VALID,1.03906,
2010-07-21, 02:54:05,VALID,1009.06,VALID,0,VALID,102.551,VALID,0,VALID,22.858,VALID,95,VALID,1.22773,
2010-07-21, 02:55:05,VALID,1009.05,VALID,0,VALID,102.574,VALID,0,VALID,22.8368,VALID,81,VALID,0.759375,
2010-07-21, 02:56:05,VALID,1009.03,VALID,0,VALID,102.566,VALID,0,VALID,22.8368,VALID,90,VALID,0.71875,
2010-07-21, 02:57:05,VALID,1009.02,VALID,0,VALID,102.574,VALID,0,VALID,22.8562,VALID,101,VALID,0.821094,
2010-07-21, 02:58:05,VALID,1009.04,VALID,0,VALID,102.574,VALID,0,VALID,22.8368,VALID,104,VALID,0.998438,
2010-07-21, 02:59:05,VALID,1009.02,VALID,0,VALID,102.589,VALID,0,VALID,22.8562,VALID,88,VALID,0.8625,
2010-07-21, 03:00:05,VALID,1009.03,VALID,0,VALID,102.589,VALID,0,VALID,22.8562,VALID,81,VALID,0.955469,
2010-07-21, 03:01:05,VALID,1009,VALID,0,VALID,102.635,VALID,0,VALID,22.8368,VALID,90,VALID,1.08125,
2010-07-21, 03:02:05,VALID,1008.99,VALID,0,VALID,102.666,VALID,0,VALID,22.8173,VALID,99,VALID,0.966406,
2010-07-21, 03:03:05,VALID,1009,VALID,0,VALID,102.688,VALID,0,VALID,22.8173,VALID,104,VALID,0.89375,
2010-07-21, 03:04:05,VALID,1008.96,VALID,0,VALID,102.696,VALID,0,VALID,22.8173,VALID,103,VALID,1.07813,
2010-07-21, 03:05:05,VALID,1008.95,VALID,0,VALID,102.727,VALID,0,VALID,22.7978,VALID,98,VALID,0.630469,
2010-07-21, 03:06:05,VALID,1008.97,VALID,0,VALID,102.719,VALID,0,VALID,22.819,VALID,95,VALID,0.858984,
2010-07-21, 03:07:05,VALID,1008.93,VALID,0,VALID,102.719,VALID,0,VALID,22.7783,VALID,91,VALID,0.685938,
2010-07-21, 03:08:05,VALID,1008.91,VALID,0,VALID,102.727,VALID,0,VALID,22.7783,VALID,86,VALID,0.50625,
2010-07-21, 03:09:05,VALID,1008.92,VALID,0,VALID,102.734,VALID,0,VALID,22.7588,VALID,88,VALID,0.804688,
2010-07-21, 03:10:05,VALID,1008.94,VALID,0,VALID,102.734,VALID,0,VALID,22.7783,VALID,89,VALID,0.522656,
2010-07-21, 03:11:05,VALID,1008.96,VALID,0,VALID,102.734,VALID,0,VALID,22.7394,VALID,83,VALID,0.424609,
2010-07-21, 03:12:05,VALID,1008.97,VALID,0,VALID,102.749,VALID,0,VALID,22.7394,VALID,83,VALID,0.0195313,
2010-07-21, 03:13:05,VALID,1008.96,VALID,0,VALID,102.765,VALID,0,VALID,22.7394,VALID,83,VALID,0,
2010-07-21, 03:14:05,VALID,1008.98,VALID,0,VALID,102.757,VALID,0,VALID,22.7394,VALID,68,VALID,0.2625,
2010-07-21, 03:15:05,VALID,1008.96,VALID,0,VALID,102.734,VALID,0,VALID,22.7394,VALID,67,VALID,0,
2010-07-21, 03:16:05,VALID,1009.01,VALID,0,VALID,102.742,VALID,0,VALID,22.7394,VALID,67,VALID,0.000390625,
2010-07-21, 03:17:05,VALID,1008.99,VALID,0,VALID,102.757,VALID,0,VALID,22.7394,VALID,73,VALID,0.232031,
2010-07-21, 03:18:05,VALID,1009.01,VALID,0,VALID,102.742,VALID,0,VALID,22.7199,VALID,109,VALID,0.592969,
2010-07-21, 03:19:05,VALID,1009.02,VALID,0,VALID,102.765,VALID,0,VALID,22.7394,VALID,100,VALID,0.679688,
2010-07-21, 03:20:05,VALID,1009,VALID,0,VALID,102.734,VALID,0,VALID,22.7394,VALID,94,VALID,0.539844,
2010-07-21, 03:21:05,VALID,1009.01,VALID,0,VALID,102.757,VALID,0,VALID,22.7606,VALID,94,VALID,0.0457031,
2010-07-21, 03:22:05,VALID,1009.04,VALID,0,VALID,102.727,VALID,0,VALID,22.7376,VALID,94,VALID,0.116797,
2010-07-21, 03:23:05,VALID,1009.06,VALID,0,VALID,102.765,VALID,0,VALID,22.7606,VALID,94,VALID,0.551953,
2010-07-21, 03:24:05,VALID,1009.05,VALID,0,VALID,102.727,VALID,0,VALID,22.7394,VALID,94,VALID,0.387109,
2010-07-21, 03:25:05,VALID,1009.09,VALID,0,VALID,102.727,VALID,0,VALID,22.78,VALID,95,VALID,0.467969,
2010-07-21, 03:26:05,VALID,1009.1,VALID,0,VALID,102.727,VALID,0,VALID,22.7995,VALID,95,VALID,0.191797,
2010-07-21, 03:27:05,VALID,1009.09,VALID,0,VALID,102.734,VALID,0,VALID,22.7783,VALID,124,VALID,0.817578,
2010-07-21, 03:28:04,VALID,1009.11,VALID,0,VALID,102.742,VALID,0,VALID,22.7783,VALID,121,VALID,0.547266,
2010-07-21, 03:29:04,VALID,1009.12,VALID,0,VALID,102.734,VALID,0,VALID,22.7783,VALID,121,VALID,0.305859,
2010-07-21, 03:30:04,VALID,1009.15,VALID,0,VALID,102.749,VALID,0,VALID,22.7588,VALID,113,VALID,0.661328,
2010-07-21, 03:31:04,VALID,1009.16,VALID,0,VALID,102.757,VALID,0,VALID,22.7783,VALID,124,VALID,0.371875,
2010-07-21, 03:32:04,VALID,1009.17,VALID,0,VALID,102.749,VALID,0,VALID,22.7588,VALID,124,VALID,0.200781,
2010-07-21, 03:33:04,VALID,1009.2,VALID,0,VALID,102.749,VALID,0,VALID,22.7588,VALID,124,VALID,0.617578,
2010-07-21, 03:34:04,VALID,1009.19,VALID,0,VALID,102.78,VALID,0,VALID,22.7394,VALID,124,VALID,0.860547,
2010-07-21, 03:35:04,VALID,1009.19,VALID,0,VALID,102.795,VALID,0,VALID,22.7588,VALID,125,VALID,0.972656,
2010-07-21, 03:36:04,VALID,1009.2,VALID,0,VALID,102.803,VALID,0,VALID,22.7606,VALID,127,VALID,0.858203,
2010-07-21, 03:37:04,VALID,1009.21,VALID,0,VALID,102.818,VALID,0,VALID,22.7394,VALID,119,VALID,0.671875,
2010-07-21, 03:38:04,VALID,1009.21,VALID,0,VALID,102.803,VALID,0,VALID,22.7394,VALID,108,VALID,0.445313,
2010-07-21, 03:39:04,VALID,1009.2,VALID,0,VALID,102.795,VALID,0,VALID,22.7394,VALID,110,VALID,0.162891,
2010-07-21, 03:40:04,VALID,1009.2,VALID,0,VALID,102.78,VALID,0,VALID,22.7411,VALID,110,VALID,0,
2010-07-21, 03:41:04,VALID,1009.18,VALID,0,VALID,102.78,VALID,0,VALID,22.7411,VALID,110,VALID,0.0289063,
2010-07-21, 03:42:04,VALID,1009.18,VALID,0,VALID,102.818,VALID,0,VALID,22.7394,VALID,110,VALID,0,
2010-07-21, 03:43:04,VALID,1009.18,VALID,0,VALID,102.803,VALID,0,VALID,22.7411,VALID,110,VALID,0,
2010-07-21, 03:44:04,VALID,1009.18,VALID,0,VALID,102.81,VALID,0,VALID,22.7199,VALID,110,VALID,0,
2010-07-21, 03:45:04,VALID,1009.17,VALID,0,VALID,102.81,VALID,0.105969,VALID,22.7394,VALID,110,VALID,0,
2010-07-21, 03:46:04,VALID,1009.19,VALID,0,VALID,102.78,VALID,0,VALID,22.7199,VALID,110,VALID,0,
2010-07-21, 03:47:04,VALID,1009.21,VALID,0,VALID,102.818,VALID,0,VALID,22.7394,VALID,111,VALID,0.344922,
2010-07-21, 03:48:04,VALID,1009.21,VALID,0,VALID,102.818,VALID,0,VALID,22.7004,VALID,111,VALID,0.421875,
2010-07-21, 03:49:04,VALID,1009.21,VALID,0,VALID,102.826,VALID,0,VALID,22.7004,VALID,112,VALID,0.447656,
2010-07-21, 03:50:04,VALID,1009.18,VALID,0,VALID,102.826,VALID,0,VALID,22.7004,VALID,113,VALID,0.463281,
2010-07-21, 03:51:04,VALID,1009.23,VALID,0,VALID,102.818,VALID,0,VALID,22.7004,VALID,113,VALID,0.474219,
2010-07-21, 03:52:04,VALID,1009.22,VALID,0,VALID,102.826,VALID,0,VALID,22.6809,VALID,126,VALID,0.734375,
2010-07-21, 03:53:04,VALID,1009.2,VALID,0,VALID,102.826,VALID,0,VALID,22.6809,VALID,126,VALID,0.467187,